| time (UTC) | temp F | wind direction | speed MPH | gust MPH | rain 1hr in | rain 24hr in | rain mn in | humidity % | barometer mb |
| 20260507081304 | 46 | 294 | 5.0 | 7.0 | 0.00 | 0.00 | 0.00 | 95 | 1018.5 |
| 20260507080803 | 46 | 304 | 4.0 | 2.0 | 0.00 | 0.00 | 0.00 | 95 | 1018.5 |
| 20260507075307 | 46 | 323 | 4.0 | 5.0 | 0.00 | 0.00 | 0.00 | 95 | 1018.6 |
| 20260507074807 | 46 | 323 | 4.0 | 4.0 | 0.00 | 0.00 | 0.00 | 95 | 1018.6 |
| 20260507074305 | 46 | 298 | 3.0 | 4.0 | 0.00 | 0.00 | 0.00 | 94 | 1018.6 |
| 20260507073806 | 45 | 287 | 5.0 | 4.0 | 0.00 | 0.00 | 0.00 | 94 | 1018.6 |
| 20260507072808 | 45 | 295 | 2.0 | 2.0 | 0.00 | 0.00 | 0.00 | 93 | 1018.8 |
| 20260507072309 | 45 | 294 | 2.0 | 5.0 | 0.00 | 0.00 | 0.00 | 93 | 1018.8 |
| 20260507071808 | 45 | 278 | 5.0 | 3.0 | 0.00 | 0.00 | 0.00 | 93 | 1018.8 |
| 20260507071309 | 45 | 285 | 4.0 | 3.0 | 0.00 | 0.00 | 0.00 | 92 | 1018.9 |
| 20260507070810 | 45 | 301 | 3.0 | 5.0 | 0.00 | 0.00 | 0.00 | 92 | 1018.9 |
| 20260507065812 | 45 | 294 | 2.0 | 2.0 | 0.00 | 0.00 | 0.00 | 92 | 1019.0 |
| 20260507065310 | 46 | 255 | 3.0 | 3.0 | 0.00 | 0.00 | 0.00 | 91 | 1019.2 |
| 20260507064312 | 46 | 291 | 3.0 | 4.0 | 0.00 | 0.00 | 0.00 | 91 | 1019.1 |
| 20260507063314 | 46 | 312 | 2.0 | 3.0 | 0.00 | 0.00 | 0.00 | 90 | 1019.1 |
| 20260507062812 | 46 | 304 | 3.0 | 3.0 | 0.00 | 0.00 | 0.00 | 90 | 1019.2 |
| 20260507062313 | 46 | 298 | 4.0 | 3.0 | 0.00 | 0.00 | 0.00 | 89 | 1019.5 |
| 20260507061814 | 47 | 269 | 3.0 | 7.0 | 0.00 | 0.00 | 0.00 | 89 | 1019.2 |
| 20260507061315 | 47 | 301 | 4.0 | 1.0 | 0.00 | 0.00 | 0.00 | 89 | 1019.5 |
| 20260507060315 | 47 | 273 | 4.0 | 3.0 | 0.00 | 0.00 | 0.00 | 89 | 1019.4 |
| 20260507055816 | 47 | 356 | 2.0 | 2.0 | 0.00 | 0.00 | 0.00 | 89 | 1019.4 |
| 20260507055317 | 47 | 218 | 4.0 | 6.0 | 0.00 | 0.00 | 0.00 | 88 | 1019.6 |
| 20260507054818 | 47 | 259 | 2.0 | 5.0 | 0.00 | 0.00 | 0.00 | 88 | 1019.5 |
| 20260507054319 | 47 | 319 | 3.0 | 3.0 | 0.00 | 0.00 | 0.00 | 88 | 1019.5 |
| 20260507053817 | 47 | 293 | 3.0 | 5.0 | 0.00 | 0.00 | 0.00 | 88 | 1019.6 |
| 20260507052819 | 48 | 281 | 4.0 | 2.0 | 0.00 | 0.00 | 0.00 | 89 | 1019.6 |
| 20260507052320 | 48 | 318 | 4.0 | 2.0 | 0.00 | 0.00 | 0.00 | 88 | 1019.8 |
| 20260507051821 | 48 | 291 | 5.0 | 2.0 | 0.00 | 0.00 | 0.00 | 87 | 1019.6 |
| 20260507051319 | 48 | 287 | 5.0 | 4.0 | 0.00 | 0.00 | 0.00 | 86 | 1019.6 |
| 20260507050321 | 48 | 281 | 4.0 | 3.0 | 0.00 | 0.00 | 0.00 | 85 | 1019.7 |
| 20260507044822 | 48 | 284 | 3.0 | 2.0 | 0.00 | 0.00 | 0.00 | 84 | 1019.7 |
| 20260507044323 | 49 | 280 | 4.0 | 4.0 | 0.00 | 0.00 | 0.00 | 83 | 1019.7 |
| 20260507043325 | 49 | 300 | 5.0 | 2.0 | 0.00 | 0.00 | 0.00 | 81 | 1019.8 |
| 20260507042826 | 49 | 315 | 5.0 | 2.0 | 0.00 | 0.00 | 0.00 | 81 | 1019.7 |
| 20260507041327 | 50 | 343 | 4.0 | 3.0 | 0.00 | 0.00 | 0.00 | 81 | 1019.7 |
| 20260507040828 | 50 | 339 | 3.0 | 4.0 | 0.00 | 0.00 | 0.00 | 80 | 1019.7 |
| 20260507040329 | 50 | 311 | 6.0 | 4.0 | 0.00 | 0.00 | 0.00 | 80 | 1019.7 |
| 20260507035827 | 50 | 312 | 5.0 | 4.0 | 0.00 | 0.00 | 0.00 | 79 | 1019.6 |
| 20260507035328 | 51 | 269 | 7.0 | 3.0 | 0.00 | 0.00 | 0.00 | 77 | 1019.7 |
| 20260507034829 | 51 | 283 | 7.0 | 6.0 | 0.00 | 0.00 | 0.00 | 76 | 1019.7 |
| 20260507033330 | 52 | 319 | 4.0 | 4.0 | 0.00 | 0.00 | 0.00 | 74 | 1019.6 |
| 20260507032831 | 52 | 298 | 6.0 | 4.0 | 0.00 | 0.00 | 0.00 | 74 | 1019.6 |
| 20260507032332 | 52 | 294 | 6.0 | 5.0 | 0.00 | 0.00 | 0.00 | 73 | 1019.6 |
| 20260507031833 | 53 | 228 | 6.0 | 1.0 | 0.00 | 0.00 | 0.00 | 71 | 1019.6 |
| 20260507031334 | 53 | 262 | 6.0 | 2.0 | 0.00 | 0.00 | 0.00 | 70 | 1019.6 |
| 20260507030832 | 53 | 260 | 6.0 | 4.0 | 0.00 | 0.00 | 0.00 | 69 | 1019.6 |
| 20260507030333 | 54 | 298 | 6.0 | 2.0 | 0.00 | 0.00 | 0.00 | 67 | 1019.6 |
| 20260507025835 | 54 | 283 | 4.0 | 6.0 | 0.00 | 0.00 | 0.00 | 66 | 1019.6 |
| 20260507025336 | 54 | 297 | 5.0 | 2.0 | 0.00 | 0.00 | 0.00 | 66 | 1019.6 |
| 20260507024335 | 55 | 314 | 6.0 | 10.0 | 0.00 | 0.00 | 0.00 | 63 | 1019.5 |
| 20260507023836 | 55 | 294 | 6.0 | 7.0 | 0.00 | 0.00 | 0.00 | 63 | 1019.5 |
| 20260507023338 | 55 | 290 | 6.0 | 12.0 | 0.00 | 0.00 | 0.00 | 62 | 1019.6 |
| 20260507022839 | 56 | 300 | 6.0 | 8.0 | 0.00 | 0.00 | 0.00 | 61 | 1019.6 |
| 20260507021838 | 57 | 255 | 6.0 | 2.0 | 0.00 | 0.00 | 0.00 | 59 | 1019.6 |
| 20260507020342 | 58 | 283 | 6.0 | 7.0 | 0.00 | 0.00 | 0.00 | 55 | 1019.7 |
| 20260507014842 | 60 | 281 | 6.0 | 5.0 | 0.00 | 0.00 | 0.00 | 52 | 1019.7 |
| 20260507014344 | 60 | 307 | 8.0 | 5.0 | 0.00 | 0.00 | 0.00 | 50 | 1019.8 |
| 20260507013845 | 60 | 323 | 4.0 | 5.0 | 0.00 | 0.00 | 0.00 | 50 | 1019.8 |
| 20260507013346 | 61 | 326 | 5.0 | 3.0 | 0.00 | 0.00 | 0.00 | 49 | 1019.9 |
| 20260507012844 | 61 | 302 | 6.0 | 3.0 | 0.00 | 0.00 | 0.00 | 48 | 1019.8 |
| 20260507012345 | 61 | 266 | 4.0 | 4.0 | 0.00 | 0.00 | 0.00 | 49 | 1019.8 |
| 20260507011847 | 61 | 308 | 5.0 | 5.0 | 0.00 | 0.00 | 0.00 | 49 | 1019.8 |
| 20260507011348 | 61 | 297 | 5.0 | 6.0 | 0.00 | 0.00 | 0.00 | 48 | 1019.8 |
| 20260507010849 | 61 | 287 | 4.0 | 5.0 | 0.00 | 0.00 | 0.00 | 48 | 1019.8 |
| 20260507010347 | 61 | 277 | 6.0 | 8.0 | 0.00 | 0.00 | 0.00 | 47 | 1019.9 |
| 20260507005848 | 62 | 309 | 5.0 | 6.0 | 0.00 | 0.00 | 0.00 | 47 | 1019.9 |
| 20260507004851 | 62 | 312 | 4.0 | 3.0 | 0.00 | 0.00 | 0.00 | 46 | 1019.8 |
| 20260507003850 | 62 | 350 | 4.0 | 2.0 | 0.00 | 0.00 | 0.00 | 46 | 1019.8 |
| 20260507003352 | 62 | 294 | 3.0 | 5.0 | 0.00 | 0.00 | 0.00 | 46 | 1019.8 |
| 20260507002853 | 62 | 325 | 6.0 | 3.0 | 0.00 | 0.00 | 0.00 | 44 | 1019.8 |
| 20260507002354 | 63 | 329 | 3.0 | 5.0 | 0.00 | 0.00 | 0.00 | 43 | 1019.8 |
| 20260507001855 | 63 | 307 | 7.0 | 8.0 | 0.00 | 0.00 | 0.00 | 43 | 1019.8 |
| 20260507001401 | 63 | 284 | 6.0 | 8.0 | 0.00 | 0.00 | 0.00 | 46 | 1019.7 |
| 20260507000855 | 63 | 28 | 3.0 | 1.0 | 0.00 | 0.00 | 0.00 | 44 | 1019.7 |
| 20260506235358 | 65 | 250 | 5.0 | 4.0 | 0.00 | 0.00 | 0.00 | 42 | 1019.7 |
| 20260506234857 | 65 | 321 | 7.0 | 7.0 | 0.00 | 0.00 | 0.00 | 39 | 1019.6 |
| 20260506234358 | 65 | 184 | 4.0 | 3.0 | 0.00 | 0.00 | 0.00 | 41 | 1019.6 |
| 20260506233859 | 65 | 302 | 8.0 | 8.0 | 0.00 | 0.00 | 0.00 | 40 | 1019.6 |
| 20260506233400 | 65 | 293 | 3.0 | 5.0 | 0.00 | 0.00 | 0.00 | 42 | 1019.7 |
| 20260506232928 | 65 | 271 | 3.0 | 7.0 | 0.00 | 0.00 | 0.00 | 44 | 1019.7 |
| 20260506232400 | 64 | 277 | 4.0 | 7.0 | 0.00 | 0.00 | 0.00 | 44 | 1019.8 |
| 20260506231401 | 64 | 316 | 7.0 | 7.0 | 0.00 | 0.00 | 0.00 | 45 | 1019.8 |
| 20260506230903 | 64 | 297 | 6.0 | 2.0 | 0.00 | 0.00 | 0.00 | 46 | 1019.9 |
| 20260506230404 | 63 | 323 | 5.0 | 8.0 | 0.00 | 0.00 | 0.00 | 47 | 1019.9 |
| 20260506225902 | 63 | 328 | 1.0 | 5.0 | 0.00 | 0.00 | 0.00 | 49 | 1020.1 |
| 20260506225403 | 63 | 315 | 6.0 | 6.0 | 0.00 | 0.00 | 0.00 | 47 | 1020.1 |
| 20260506224405 | 64 | 287 | 6.0 | 12.0 | 0.00 | 0.00 | 0.00 | 46 | 1020.2 |
| 20260506223412 | 65 | 293 | 7.0 | 11.0 | 0.00 | 0.00 | 0.00 | 46 | 1020.2 |
| 20260506222407 | 66 | 316 | 4.0 | 5.0 | 0.00 | 0.00 | 0.00 | 43 | 1020.3 |
| 20260506221909 | 65 | 284 | 4.0 | 6.0 | 0.00 | 0.00 | 0.00 | 43 | 1020.3 |
| 20260506220409 | 66 | 293 | 4.0 | 9.0 | 0.00 | 0.00 | 0.00 | 41 | 1020.3 |
| 20260506215910 | 66 | 252 | 6.0 | 2.0 | 0.00 | 0.00 | 0.00 | 41 | 1020.3 |
| 20260506215412 | 66 | 255 | 3.0 | 0.0 | 0.00 | 0.00 | 0.00 | 45 | 1020.3 |
| 20260506214913 | 65 | 319 | 4.0 | 4.0 | 0.00 | 0.00 | 0.00 | 45 | 1020.2 |
| 20260506213912 | 65 | 307 | 6.0 | 6.0 | 0.00 | 0.00 | 0.00 | 44 | 1020.2 |
| 20260506213414 | 65 | 339 | 6.0 | 4.0 | 0.00 | 0.00 | 0.00 | 44 | 1020.3 |
| 20260506211913 | 66 | 293 | 5.0 | 7.0 | 0.00 | 0.00 | 0.00 | 43 | 1020.2 |
| 20260506211438 | 65 | 249 | 3.0 | 1.0 | 0.00 | 0.00 | 0.00 | 45 | 1020.3 |
| 20260506210915 | 66 | 315 | 7.0 | 6.0 | 0.00 | 0.00 | 0.00 | 43 | 1020.2 |
| 20260506210416 | 66 | 269 | 6.0 | 10.0 | 0.00 | 0.00 | 0.00 | 42 | 1020.1 |
| 20260506205918 | 66 | 300 | 7.0 | 5.0 | 0.00 | 0.00 | 0.00 | 42 | 1020.1 |
| 20260506205416 | 66 | 312 | 6.0 | 12.0 | 0.00 | 0.00 | 0.00 | 43 | 1020.1 |
| 20260506204917 | 66 | 274 | 6.0 | 6.0 | 0.00 | 0.00 | 0.00 | 44 | 1020.1 |
| 20260506204418 | 66 | 321 | 6.0 | 9.0 | 0.00 | 0.00 | 0.00 | 44 | 1020.1 |
| 20260506203421 | 65 | 285 | 5.0 | 7.0 | 0.00 | 0.00 | 0.00 | 45 | 1019.9 |
| 20260506202919 | 66 | 329 | 7.0 | 10.0 | 0.00 | 0.00 | 0.00 | 44 | 1020.1 |
| 20260506202420 | 66 | 281 | 6.0 | 4.0 | 0.00 | 0.00 | 0.00 | 44 | 1019.9 |
| 20260506201423 | 67 | 284 | 4.0 | 11.0 | 0.00 | 0.00 | 0.00 | 45 | 1019.8 |
| 20260506200422 | 66 | 295 | 3.0 | 8.0 | 0.00 | 0.00 | 0.00 | 45 | 1019.8 |
| 20260506195924 | 66 | 288 | 4.0 | 1.0 | 0.00 | 0.00 | 0.00 | 46 | 1019.8 |
| 20260506195425 | 65 | 288 | 5.0 | 12.0 | 0.00 | 0.00 | 0.00 | 45 | 1019.9 |
| 20260506193430 | 66 | 314 | 5.0 | 7.0 | 0.00 | 0.00 | 0.00 | 43 | 1019.8 |
| 20260506192928 | 66 | 302 | 6.0 | 3.0 | 0.00 | 0.00 | 0.00 | 41 | 1019.9 |
| 20260506191930 | 66 | 293 | 3.0 | 6.0 | 0.00 | 0.00 | 0.00 | 44 | 1019.8 |
| 20260506191429 | 66 | 277 | 3.0 | 1.0 | 0.00 | 0.00 | 0.00 | 43 | 1019.8 |
| 20260506190930 | 65 | 293 | 4.0 | 5.0 | 0.00 | 0.00 | 0.00 | 45 | 1019.9 |
| 20260506190431 | 65 | 290 | 4.0 | 7.0 | 0.00 | 0.00 | 0.00 | 44 | 1020.1 |
| 20260506185932 | 65 | 315 | 6.0 | 4.0 | 0.00 | 0.00 | 0.00 | 45 | 1020.1 |
| 20260506185434 | 64 | 266 | 2.0 | 2.0 | 0.00 | 0.00 | 0.00 | 49 | 1020.1 |
| 20260506184932 | 64 | 295 | 3.0 | 3.0 | 0.00 | 0.00 | 0.00 | 48 | 1020.1 |
| 20260506184433 | 64 | 315 | 2.0 | 6.0 | 0.00 | 0.00 | 0.00 | 49 | 1019.9 |
| 20260506183934 | 64 | 287 | 3.0 | 6.0 | 0.00 | 0.00 | 0.00 | 49 | 1020.1 |
| 20260506183435 | 64 | 321 | 3.0 | 0.0 | 0.00 | 0.00 | 0.00 | 49 | 1020.1 |
| 20260506182937 | 63 | 328 | 3.0 | 3.0 | 0.00 | 0.00 | 0.00 | 50 | 1020.1 |
| 20260506182447 | 62 | 304 | 4.0 | 5.0 | 0.00 | 0.00 | 0.00 | 53 | 1020.1 |
| 20260506181936 | 62 | 255 | 4.0 | 2.0 | 0.00 | 0.00 | 0.00 | 53 | 1020.1 |
| 20260506181437 | 61 | 283 | 2.0 | 2.0 | 0.00 | 0.00 | 0.00 | 55 | 1020.1 |
| 20260506180440 | 61 | 238 | 5.0 | 1.0 | 0.00 | 0.00 | 0.00 | 56 | 1020.1 |
| 20260506175938 | 60 | 10 | 2.0 | 4.0 | 0.00 | 0.00 | 0.00 | 56 | 1019.9 |
| 20260506175439 | 60 | 301 | 3.0 | 3.0 | 0.00 | 0.00 | 0.00 | 58 | 1019.8 |
| 20260506174940 | 60 | 293 | 2.0 | 0.0 | 0.00 | 0.00 | 0.00 | 56 | 1019.8 |
| 20260506174441 | 59 | 256 | 4.0 | 2.0 | 0.00 | 0.00 | 0.00 | 58 | 1019.8 |
| 20260506173942 | 59 | 264 | 3.0 | 0.0 | 0.00 | 0.00 | 0.00 | 58 | 1019.8 |
| 20260506173441 | 59 | 264 | 4.0 | 1.0 | 0.00 | 0.00 | 0.00 | 58 | 1019.9 |
| 20260506172941 | 59 | 314 | 1.0 | 2.0 | 0.00 | 0.00 | 0.00 | 57 | 1019.9 |
| 20260506171944 | 59 | 316 | 3.0 | 3.0 | 0.00 | 0.00 | 0.00 | 53 | 1019.7 |
| 20260506171445 | 59 | 312 | 5.0 | 5.0 | 0.00 | 0.00 | 0.00 | 57 | 1019.7 |
| 20260506170943 | 59 | 308 | 1.0 | 2.0 | 0.00 | 0.00 | 0.00 | 60 | 1019.6 |
| 20260506170444 | 58 | 284 | 4.0 | 4.0 | 0.00 | 0.00 | 0.00 | 60 | 1019.5 |
| 20260506165945 | 58 | 269 | 4.0 | 1.0 | 0.00 | 0.00 | 0.00 | 58 | 1019.4 |
| 20260506165447 | 58 | 305 | 2.0 | 4.0 | 0.00 | 0.00 | 0.00 | 63 | 1019.4 |
| 20260506163447 | 56 | 302 | 1.0 | 1.0 | 0.00 | 0.00 | 0.00 | 70 | 1018.9 |
| 20260506162948 | 55 | 285 | 3.0 | 1.0 | 0.00 | 0.00 | 0.00 | 73 | 1018.9 |
| 20260506162449 | 55 | 280 | 1.0 | 2.0 | 0.00 | 0.00 | 0.00 | 74 | 1018.9 |
| 20260506161948 | 54 | 315 | 2.0 | 5.0 | 0.00 | 0.00 | 0.00 | 75 | 1018.9 |
| 20260506161449 | 55 | 323 | 3.0 | 2.0 | 0.00 | 0.00 | 0.00 | 73 | 1018.9 |
| 20260506160950 | 55 | 315 | 5.0 | 5.0 | 0.00 | 0.00 | 0.00 | 72 | 1018.8 |
| 20260506160451 | 55 | 321 | 2.0 | 2.0 | 0.00 | 0.00 | 0.00 | 75 | 1018.8 |
| 20260506155952 | 54 | 323 | 5.0 | 3.0 | 0.00 | 0.00 | 0.00 | 74 | 1018.9 |
| 20260506155450 | 54 | 277 | 3.0 | 1.0 | 0.00 | 0.00 | 0.00 | 76 | 1018.9 |
| 20260506154951 | 54 | 319 | 3.0 | 4.0 | 0.00 | 0.00 | 0.00 | 78 | 1019.0 |
| 20260506154452 | 53 | 294 | 4.0 | 6.0 | 0.00 | 0.00 | 0.00 | 78 | 1019.0 |
| 20260506153953 | 53 | 301 | 4.0 | 5.0 | 0.00 | 0.00 | 0.00 | 79 | 1018.9 |
| 20260506153454 | 52 | 315 | 3.0 | 6.0 | 0.00 | 0.00 | 0.00 | 82 | 1018.9 |
| 20260506152953 | 51 | 315 | 4.0 | 3.0 | 0.00 | 0.00 | 0.00 | 83 | 1018.8 |
| 20260506151955 | 50 | 269 | 3.0 | 2.0 | 0.00 | 0.00 | 0.00 | 85 | 1018.6 |
| 20260506151456 | 50 | 345 | 3.0 | 3.0 | 0.00 | 0.00 | 0.00 | 84 | 1018.8 |
| 20260506150957 | 50 | 274 | 4.0 | 2.0 | 0.00 | 0.00 | 0.00 | 88 | 1018.8 |
| 20260506150455 | 49 | 314 | 3.0 | 3.0 | 0.00 | 0.00 | 0.00 | 90 | 1018.8 |
| 20260506145457 | 48 | 290 | 2.0 | 1.0 | 0.00 | 0.00 | 0.00 | 95 | 1018.8 |
| 20260506144958 | 48 | 347 | 4.0 | 0.0 | 0.00 | 0.00 | 0.00 | 96 | 1018.6 |
| 20260506144459 | 47 | 307 | 4.0 | 5.0 | 0.00 | 0.00 | 0.00 | 97 | 1018.6 |
| 20260506143957 | 47 | 315 | 3.0 | 1.0 | 0.00 | 0.00 | 0.00 | 98 | 1018.6 |
| 20260506143458 | 46 | 259 | 0.0 | 0.0 | 0.00 | 0.00 | 0.00 | 98 | 1018.5 |
| 20260506142959 | 46 | 294 | 3.0 | 3.0 | 0.00 | 0.00 | 0.00 | 98 | 1018.5 |
| 20260506142500 | 46 | 309 | 2.0 | 3.0 | 0.00 | 0.00 | 0.00 | 98 | 1018.5 |
| 20260506142001 | 45 | 311 | 1.0 | 4.0 | 0.00 | 0.00 | 0.00 | 98 | 1018.5 |
| 20260506141500 | 45 | 319 | 0.0 | 0.0 | 0.00 | 0.00 | 0.00 | 98 | 1018.5 |
| 20260506141000 | 45 | 250 | 0.0 | 0.0 | 0.00 | 0.00 | 0.00 | 98 | 1018.4 |
| 20260506140501 | 45 | 307 | 0.0 | 0.0 | 0.00 | 0.00 | 0.00 | 98 | 1018.4 |
| 20260506135503 | 45 | 295 | 6.0 | 4.0 | 0.00 | 0.00 | 0.00 | 98 | 1018.3 |
| 20260506135002 | 45 | 323 | 1.0 | 2.0 | 0.00 | 0.00 | 0.00 | 98 | 1018.4 |
| 20260506133005 | 45 | 290 | 0.0 | 0.0 | 0.00 | 0.00 | 0.00 | 98 | 1018.1 |
| 20260506132504 | 45 | 294 | 2.0 | 5.0 | 0.00 | 0.00 | 0.00 | 98 | 1018.1 |
| 20260506132005 | 44 | 305 | 0.0 | 0.0 | 0.00 | 0.00 | 0.00 | 98 | 1017.9 |
| 20260506130508 | 44 | 328 | 2.0 | 3.0 | 0.00 | 0.00 | 0.00 | 98 | 1017.7 |
| 20260506130006 | 44 | 300 | 2.0 | 1.0 | 0.00 | 0.00 | 0.00 | 98 | 1017.6 |
| 20260506125507 | 44 | 335 | 3.0 | 4.0 | 0.00 | 0.00 | 0.00 | 98 | 1017.6 |
| 20260506123508 | 44 | 345 | 0.0 | 0.0 | 0.00 | 0.00 | 0.00 | 97 | 1017.5 |
| 20260506122510 | 44 | 345 | 0.0 | 0.0 | 0.00 | 0.00 | 0.00 | 97 | 1017.5 |
| 20260506122011 | 44 | 345 | 0.0 | 0.0 | 0.00 | 0.00 | 0.00 | 97 | 1017.5 |
| 20260506121512 | 44 | 345 | 0.0 | 0.0 | 0.00 | 0.00 | 0.00 | 97 | 1017.5 |
| 20260506115514 | 44 | 345 | 0.0 | 0.0 | 0.00 | 0.00 | 0.00 | 97 | 1017.5 |
| 20260506115015 | 44 | 345 | 0.0 | 0.0 | 0.00 | 0.00 | 0.00 | 97 | 1017.5 |
| 20260506114513 | 44 | 345 | 0.0 | 0.0 | 0.00 | 0.00 | 0.00 | 97 | 1017.5 |
| 20260506114014 | 44 | 345 | 0.0 | 0.0 | 0.00 | 0.00 | 0.00 | 97 | 1017.3 |
| 20260506113515 | 44 | 345 | 0.0 | 0.0 | 0.00 | 0.00 | 0.00 | 97 | 1017.3 |
| 20260506113017 | 44 | 271 | 0.0 | 0.0 | 0.00 | 0.00 | 0.00 | 97 | 1017.2 |
| 20260506112518 | 44 | 333 | 0.0 | 0.0 | 0.00 | 0.00 | 0.00 | 96 | 1017.3 |
| 20260506112016 | 44 | 333 | 0.0 | 0.0 | 0.00 | 0.00 | 0.00 | 97 | 1017.2 |
| 20260506111517 | 44 | 333 | 0.0 | 0.0 | 0.00 | 0.00 | 0.00 | 97 | 1017.3 |
| 20260506111018 | 44 | 333 | 0.0 | 0.0 | 0.00 | 0.00 | 0.00 | 97 | 1017.3 |
| 20260506110520 | 44 | 333 | 0.0 | 0.0 | 0.00 | 0.00 | 0.00 | 97 | 1017.3 |
| 20260506110021 | 44 | 333 | 0.0 | 0.0 | 0.00 | 0.00 | 0.00 | 97 | 1017.2 |
| 20260506105519 | 44 | 333 | 0.0 | 0.0 | 0.00 | 0.00 | 0.00 | 97 | 1017.2 |
| 20260506104521 | 44 | 333 | 0.0 | 0.0 | 0.00 | 0.00 | 0.00 | 96 | 1017.1 |
| 20260506104022 | 44 | 333 | 0.0 | 0.0 | 0.00 | 0.00 | 0.00 | 96 | 1017.1 |
| 20260506103523 | 44 | 333 | 0.0 | 0.0 | 0.00 | 0.00 | 0.00 | 96 | 1017.0 |
| 20260506102023 | 45 | 356 | 0.0 | 0.0 | 0.00 | 0.00 | 0.00 | 96 | 1017.0 |
| 20260506101524 | 45 | 356 | 1.0 | 0.0 | 0.00 | 0.00 | 0.00 | 97 | 1016.9 |
| 20260506100524 | 45 | 288 | 0.0 | 0.0 | 0.00 | 0.00 | 0.00 | 96 | 1016.9 |
| 20260506095526 | 45 | 330 | 0.0 | 0.0 | 0.00 | 0.00 | 0.00 | 96 | 1016.9 |
| 20260506095027 | 45 | 330 | 0.0 | 0.0 | 0.00 | 0.00 | 0.00 | 96 | 1017.0 |
| 20260506094528 | 45 | 330 | 0.0 | 0.0 | 0.00 | 0.00 | 0.00 | 96 | 1017.0 |
| 20260506093527 | 45 | 330 | 0.0 | 0.0 | 0.00 | 0.00 | 0.00 | 97 | 1017.0 |
| 20260506092529 | 45 | 330 | 0.0 | 0.0 | 0.00 | 0.00 | 0.00 | 96 | 1017.0 |
| 20260506092031 | 45 | 330 | 0.0 | 0.0 | 0.00 | 0.00 | 0.00 | 96 | 1017.0 |
| 20260506091529 | 45 | 330 | 0.0 | 0.0 | 0.00 | 0.00 | 0.00 | 97 | 1017.0 |
| 20260506091031 | 45 | 330 | 0.0 | 0.0 | 0.00 | 0.00 | 0.00 | 97 | 1017.0 |
| 20260506090531 | 45 | 330 | 0.0 | 0.0 | 0.00 | 0.00 | 0.00 | 97 | 1017.1 |
| 20260506085533 | 46 | 330 | 0.0 | 0.0 | 0.00 | 0.00 | 0.00 | 97 | 1017.1 |
| 20260506084532 | 45 | 304 | 0.0 | 0.0 | 0.00 | 0.00 | 0.00 | 97 | 1017.1 |